Regional Weather Roundup
Issued by NWS Cleveland, OH

Home | Current Version | Previous Version | Graphics & Text | Print | Product List | Glossary On
Versions: 1 2 3 4 5 6 7 8 9 10 11 12 13 14 15 16 17 18 19 20 21 22 23 24 25 26 27 28 29 30 31 32 33 34 35 36 37 38 39 40 41 42 43 44 45 46 47 48 49 50
000
ASUS41 KCLE 251502
RWRCLE
OHIO REGIONAL WEATHER ROUNDUP
NATIONAL WEATHER SERVICE CLEVELAND, OH
1100 AM EDT MON JUL 25 2016

NOTE: "FAIR" INDICATES FEW OR NO CLOUDS BELOW 12,000 FEET WITH NO
SIGNIFICANT WEATHER AND/OR OBSTRUCTIONS TO VISIBILITY.

OHZ001>008-015>018-024>027-034-035-043-044-251600-
   NORTHWEST OHIO

CITY           SKY/WX    TMP DP  RH WIND       PRES   REMARKS
DEFIANCE       CLOUDY    80  67  64 SW7       29.99S
FINDLAY        CLOUDY    80  68  66 W12       29.99R
TOLEDO EXPRESS PTSUNNY   78  70  76 W12       29.97R
TOLEDO EXEC    CLOUDY    81  70  69 W9        29.97R
LIMA           CLOUDY    77  67  71 NW9       30.02R
$$

OHZ009>014-019>023-028>033-038-089-251600-
   NORTHEAST OHIO

CITY           SKY/WX    TMP DP  RH WIND       PRES   REMARKS
CLE-HOPKINS    CLOUDY    84  69  60 W10G22    29.97R
CLE-LAKEFRONT  CLOUDY    82  71  69 W18       29.94R
CUY CO. ARPT   NOT AVBL
LORAIN-ELYRIA  CLOUDY    81  69  67 W10       29.98R
ASHTABULA      CLOUDY    82  76  81 W13       29.94S
AKRON-CANTON   PTSUNNY   84  73  69 W9        29.98S HX  90
WOOSTER        MOSUNNY   84  73  69 NW7       29.99R HX  90
MANSFIELD      PTSUNNY   82  73  74 W10       30.01R
YOUNGSTOWN     CLOUDY    84  74  71 W10       29.96S HX  91
$$

OHZ042-051>053-060>062-070>072-077>081-251600-
  SOUTHWEST OHIO

CITY           SKY/WX    TMP DP  RH WIND       PRES   REMARKS
CINC-COVINGTON PTSUNNY   87  77  72 W7        30.02R HX  99
CINC-LUNKEN    MOSUNNY   88  76  67 W10G16    30.00R HX  99
HAMILTON       CLOUDY    87  74  64 W7        30.02R HX  95
DAYTON         PTSUNNY   82  66  58 NW7       30.03S
WRIGHT-PAT AFB NOT AVBL
DAYTON GENERAL MOSUNNY   87  70  56 NW9       30.02R HX  92
WILMINGTON     MOSUNNY   86  75  69 W12       30.02R HX  95
$$

OHZ036-037-039>041-045>050-054>059-063>069-073>076-082>088-251600-
  CENTRAL AND SOUTHEAST OHIO

CITY           SKY/WX    TMP DP  RH WIND       PRES   REMARKS
COLUMBUS       PTSUNNY   87  72  60 W10       29.99R HX  93
OSU AIRPORT    SUNNY     86  72  62 W10       30.00R HX  92
BOLTON FIELD   SUNNY     84  75  74 W6        30.01R HX  92
RICKENBACK AFB SUNNY     86  75  70 W7        29.99R HX  95
NEWARK         MOSUNNY   88  75  65 W7        29.99R HX  97
MARION         MOSUNNY   83  67  58 NW8       30.00R
LANCASTER      MOSUNNY   86  77  74 SW8       30.00R HX  97
ZANESVILLE     MOSUNNY   91  74  57 SW8G18    29.99S HX 100
NEW PHILLY     PTSUNNY   89  74  60 W9        29.98S HX  98
$$




USA.gov is the U.S. government's official web portal to all federal, state and local government web resources and services.